Time,TemperatureF,DewpointF,PressureIn,WindDirection,WindDirectionDegrees,WindSpeedMPH,WindSpeedGustMPH,Humidity,HourlyPrecipIn,Conditions,Clouds,dailyrainin,SoftwareType,DateUTC
2013-04-01 00:03:00,40.0,-99.9,-100.00,North,-999,-999.0,-999.0,-999,0.01,,,0.01,,2013-04-01 04:03:00,
2013-04-01 00:14:00,40.0,-99.9,-100.00,North,-999,-999.0,-999.0,-999,0.01,,,0.01,,2013-04-01 04:14:00,
2013-04-01 00:24:00,40.0,-99.9,-100.00,North,-999,-999.0,-999.0,-999,0.01,,,0.01,,2013-04-01 04:24:00,
2013-04-01 00:33:00,40.0,-99.9,-100.00,North,-999,-999.0,-999.0,-999,0.01,,,0.01,,2013-04-01 04:33:00,
2013-04-01 00:44:00,40.0,-99.9,-100.00,North,-999,-999.0,-999.0,-999,0.01,,,0.01,,2013-04-01 04:44:00,
2013-04-01 01:03:00,40.0,-99.9,-100.00,North,-999,-999.0,-999.0,-999,0.05,,,0.06,,2013-04-01 05:03:00,
2013-04-01 01:13:00,40.0,-99.9,-100.00,North,-999,-999.0,-999.0,-999,0.05,,,0.06,,2013-04-01 05:13:00,
2013-04-01 01:23:00,40.0,-99.9,-100.00,North,-999,-999.0,-999.0,-999,0.05,,,0.06,,2013-04-01 05:23:00,
2013-04-01 01:33:00,40.0,-99.9,-100.00,North,-999,-999.0,-999.0,-999,0.05,,,0.06,,2013-04-01 05:33:00,
2013-04-01 01:43:00,40.0,-99.9,-100.00,North,-999,-999.0,-999.0,-999,0.05,,,0.06,,2013-04-01 05:43:00,
2013-04-01 02:03:00,38.0,-99.9,-100.00,North,-999,-999.0,-999.0,-999,0.17,,,0.23,,2013-04-01 06:03:00,
2013-04-01 02:13:00,38.0,-99.9,-100.00,North,-999,-999.0,-999.0,-999,0.17,,,0.23,,2013-04-01 06:13:00,
2013-04-01 02:23:00,38.0,-99.9,-100.00,North,-999,-999.0,-999.0,-999,0.17,,,0.23,,2013-04-01 06:23:00,
2013-04-01 02:34:00,38.0,-99.9,-100.00,North,-999,-999.0,-999.0,-999,0.17,,,0.23,,2013-04-01 06:34:00,
2013-04-01 02:43:00,38.0,-99.9,-100.00,North,-999,-999.0,-999.0,-999,0.17,,,0.23,,2013-04-01 06:43:00,
2013-04-01 03:03:00,39.0,-99.9,-100.00,North,-999,-999.0,-999.0,-999,0.07,,,0.30,,2013-04-01 07:03:00,
2013-04-01 03:13:00,39.0,-99.9,-100.00,North,-999,-999.0,-999.0,-999,0.07,,,0.30,,2013-04-01 07:13:00,
2013-04-01 03:23:00,39.0,-99.9,-100.00,North,-999,-999.0,-999.0,-999,0.07,,,0.30,,2013-04-01 07:23:00,
2013-04-01 03:33:00,39.0,-99.9,-100.00,North,-999,-999.0,-999.0,-999,0.07,,,0.30,,2013-04-01 07:33:00,
2013-04-01 03:43:00,39.0,-99.9,-100.00,North,-999,-999.0,-999.0,-999,0.07,,,0.30,,2013-04-01 07:43:00,
2013-04-01 04:03:00,35.0,-99.9,-100.00,North,-999,-999.0,-999.0,-999,0.06,,,0.36,,2013-04-01 08:03:00,
2013-04-01 04:13:00,35.0,-99.9,-100.00,North,-999,-999.0,-999.0,-999,0.06,,,0.36,,2013-04-01 08:13:00,
2013-04-01 04:23:00,35.0,-99.9,-100.00,North,-999,-999.0,-999.0,-999,0.06,,,0.36,,2013-04-01 08:23:00,
2013-04-01 04:33:00,35.0,-99.9,-100.00,North,-999,-999.0,-999.0,-999,0.06,,,0.36,,2013-04-01 08:33:00,
2013-04-01 04:44:00,35.0,-99.9,-100.00,North,-999,-999.0,-999.0,-999,0.06,,,0.36,,2013-04-01 08:44:00,
2013-04-01 05:03:00,35.0,-99.9,-100.00,North,-999,-999.0,-999.0,-999,0.00,,,0.36,,2013-04-01 09:03:00,
2013-04-01 05:12:00,35.0,-99.9,-100.00,North,-999,-999.0,-999.0,-999,0.00,,,0.36,,2013-04-01 09:12:00,
2013-04-01 05:23:00,35.0,-99.9,-100.00,North,-999,-999.0,-999.0,-999,0.00,,,0.36,,2013-04-01 09:23:00,
2013-04-01 05:43:00,35.0,-99.9,-100.00,North,-999,-999.0,-999.0,-999,0.00,,,0.36,,2013-04-01 09:43:00,
2013-04-01 06:04:00,35.0,-99.9,-100.00,North,-999,-999.0,-999.0,-999,0.00,,,0.36,,2013-04-01 10:04:00,
2013-04-01 06:13:00,35.0,-99.9,-100.00,North,-999,-999.0,-999.0,-999,0.00,,,0.36,,2013-04-01 10:13:00,
2013-04-01 06:24:00,35.0,-99.9,-100.00,North,-999,-999.0,-999.0,-999,0.00,,,0.36,,2013-04-01 10:24:00,
2013-04-01 06:34:00,35.0,-99.9,-100.00,North,-999,-999.0,-999.0,-999,0.00,,,0.36,,2013-04-01 10:34:00,
2013-04-01 06:43:00,35.0,-99.9,-100.00,North,-999,-999.0,-999.0,-999,0.00,,,0.36,,2013-04-01 10:43:00,
2013-04-01 07:04:00,35.0,-99.9,-100.00,North,-999,-999.0,-999.0,-999,0.00,,,0.36,,2013-04-01 11:04:00,
2013-04-01 07:13:00,35.0,-99.9,-100.00,North,-999,-999.0,-999.0,-999,0.00,,,0.36,,2013-04-01 11:13:00,
2013-04-01 07:23:00,35.0,-99.9,-100.00,North,-999,-999.0,-999.0,-999,0.00,,,0.36,,2013-04-01 11:23:00,
2013-04-01 07:33:00,35.0,-99.9,-100.00,North,-999,-999.0,-999.0,-999,0.00,,,0.36,,2013-04-01 11:33:00,
2013-04-01 07:43:00,35.0,-99.9,-100.00,North,-999,-999.0,-999.0,-999,0.00,,,0.36,,2013-04-01 11:43:00,
2013-04-01 08:12:00,36.0,-99.9,-100.00,North,-999,-999.0,-999.0,-999,0.00,,,0.36,,2013-04-01 12:12:00,
2013-04-01 08:24:00,36.0,-99.9,-100.00,North,-999,-999.0,-999.0,-999,0.00,,,0.36,,2013-04-01 12:24:00,
2013-04-01 08:33:00,36.0,-99.9,-100.00,North,-999,-999.0,-999.0,-999,0.00,,,0.36,,2013-04-01 12:33:00,
2013-04-01 08:43:00,36.0,-99.9,-100.00,North,-999,-999.0,-999.0,-999,0.00,,,0.36,,2013-04-01 12:43:00,
2013-04-01 09:03:00,38.0,-99.9,-100.00,North,-999,-999.0,-999.0,-999,0.00,,,0.36,,2013-04-01 13:03:00,
2013-04-01 09:13:00,38.0,-99.9,-100.00,North,-999,-999.0,-999.0,-999,0.00,,,0.36,,2013-04-01 13:13:00,
2013-04-01 09:23:00,38.0,-99.9,-100.00,North,-999,-999.0,-999.0,-999,0.00,,,0.36,,2013-04-01 13:23:00,
2013-04-01 09:33:00,38.0,-99.9,-100.00,North,-999,-999.0,-999.0,-999,0.00,,,0.36,,2013-04-01 13:33:00,
2013-04-01 09:43:00,38.0,-99.9,-100.00,North,-999,-999.0,-999.0,-999,0.00,,,0.36,,2013-04-01 13:43:00,
2013-04-01 10:05:00,40.0,-99.9,-100.00,North,-999,-999.0,-999.0,-999,0.00,,,0.36,,2013-04-01 14:05:00,
2013-04-01 10:13:00,40.0,-99.9,-100.00,North,-999,-999.0,-999.0,-999,0.00,,,0.36,,2013-04-01 14:13:00,
2013-04-01 10:23:00,40.0,-99.9,-100.00,North,-999,-999.0,-999.0,-999,0.00,,,0.36,,2013-04-01 14:23:00,
2013-04-01 10:43:00,40.0,-99.9,-100.00,North,-999,-999.0,-999.0,-999,0.00,,,0.36,,2013-04-01 14:43:00,
2013-04-01 11:13:00,44.0,-99.9,-100.00,North,-999,-999.0,-999.0,-999,0.00,,,0.36,,2013-04-01 15:13:00,
2013-04-01 11:23:00,44.0,-99.9,-100.00,North,-999,-999.0,-999.0,-999,0.00,,,0.36,,2013-04-01 15:23:00,
2013-04-01 11:34:00,44.0,-99.9,-100.00,North,-999,-999.0,-999.0,-999,0.00,,,0.36,,2013-04-01 15:34:00,
2013-04-01 11:44:00,44.0,-99.9,-100.00,North,-999,-999.0,-999.0,-999,0.00,,,0.36,,2013-04-01 15:44:00,
2013-04-01 12:13:00,46.0,-99.9,-100.00,North,-999,-999.0,-999.0,-999,-99.99,,,-99.99,,2013-04-01 16:13:00,
2013-04-01 12:24:00,46.0,-99.9,-100.00,North,-999,-999.0,-999.0,-999,-99.99,,,-99.99,,2013-04-01 16:24:00,
2013-04-01 12:34:00,46.0,-99.9,-100.00,North,-999,-999.0,-999.0,-999,-99.99,,,-99.99,,2013-04-01 16:34:00,
2013-04-01 12:43:00,46.0,-99.9,-100.00,North,-999,-999.0,-999.0,-999,-99.99,,,-99.99,,2013-04-01 16:43:00,
2013-04-01 14:03:00,53.0,-99.9,-100.00,North,-999,-999.0,-999.0,-999,-99.99,,,-99.99,,2013-04-01 18:03:00,
2013-04-01 14:13:00,53.0,-99.9,-100.00,North,-999,-999.0,-999.0,-999,-99.99,,,-99.99,,2013-04-01 18:13:00,
2013-04-01 14:33:00,53.0,-99.9,-100.00,North,-999,-999.0,-999.0,-999,-99.99,,,-99.99,,2013-04-01 18:33:00,
2013-04-01 14:43:00,53.0,-99.9,-100.00,North,-999,-999.0,-999.0,-999,-99.99,,,-99.99,,2013-04-01 18:43:00,
2013-04-01 15:13:00,51.0,-99.9,-100.00,North,-999,-999.0,-999.0,-999,-99.99,,,-99.99,,2013-04-01 19:13:00,
2013-04-01 15:23:00,51.0,-99.9,-100.00,North,-999,-999.0,-999.0,-999,-99.99,,,-99.99,,2013-04-01 19:23:00,
2013-04-01 15:33:00,51.0,-99.9,-100.00,North,-999,-999.0,-999.0,-999,-99.99,,,-99.99,,2013-04-01 19:33:00,
2013-04-01 15:43:00,51.0,-99.9,-100.00,North,-999,-999.0,-999.0,-999,-99.99,,,-99.99,,2013-04-01 19:43:00,
2013-04-01 16:03:00,45.0,-99.9,-100.00,North,-999,-999.0,-999.0,-999,0.05,,,-99.99,,2013-04-01 20:03:00,
2013-04-01 16:13:00,45.0,-99.9,-100.00,North,-999,-999.0,-999.0,-999,0.05,,,-99.99,,2013-04-01 20:13:00,
2013-04-01 16:23:00,45.0,-99.9,-100.00,North,-999,-999.0,-999.0,-999,0.05,,,-99.99,,2013-04-01 20:23:00,
2013-04-01 16:33:00,45.0,-99.9,-100.00,North,-999,-999.0,-999.0,-999,0.05,,,-99.99,,2013-04-01 20:33:00,
2013-04-01 16:43:00,45.0,-99.9,-100.00,North,-999,-999.0,-999.0,-999,0.05,,,-99.99,,2013-04-01 20:43:00,
2013-04-01 17:03:00,43.0,-99.9,-100.00,North,-999,-999.0,-999.0,-999,0.01,,,-99.99,,2013-04-01 21:03:00,
2013-04-01 17:12:00,43.0,-99.9,-100.00,North,-999,-999.0,-999.0,-999,0.01,,,-99.99,,2013-04-01 21:12:00,
2013-04-01 17:23:00,43.0,-99.9,-100.00,North,-999,-999.0,-999.0,-999,0.01,,,-99.99,,2013-04-01 21:23:00,
2013-04-01 17:33:00,43.0,-99.9,-100.00,North,-999,-999.0,-999.0,-999,0.01,,,-99.99,,2013-04-01 21:33:00,
2013-04-01 17:44:00,43.0,-99.9,-100.00,North,-999,-999.0,-999.0,-999,0.01,,,-99.99,,2013-04-01 21:44:00,
2013-04-01 18:03:00,41.0,-99.9,-100.00,North,-999,-999.0,-999.0,-999,0.00,,,-99.99,,2013-04-01 22:03:00,
2013-04-01 18:13:00,41.0,-99.9,-100.00,North,-999,-999.0,-999.0,-999,0.00,,,-99.99,,2013-04-01 22:13:00,
2013-04-01 18:23:00,41.0,-99.9,-100.00,North,-999,-999.0,-999.0,-999,0.00,,,-99.99,,2013-04-01 22:23:00,
2013-04-01 18:33:00,41.0,-99.9,-100.00,North,-999,-999.0,-999.0,-999,0.00,,,-99.99,,2013-04-01 22:33:00,
2013-04-01 18:44:00,41.0,-99.9,-100.00,North,-999,-999.0,-999.0,-999,0.00,,,-99.99,,2013-04-01 22:44:00,
2013-04-01 19:03:00,39.0,-99.9,-100.00,North,-999,-999.0,-999.0,-999,0.00,,,-99.99,,2013-04-01 23:03:00,
2013-04-01 19:23:00,39.0,-99.9,-100.00,North,-999,-999.0,-999.0,-999,0.00,,,-99.99,,2013-04-01 23:23:00,
2013-04-01 19:33:00,39.0,-99.9,-100.00,North,-999,-999.0,-999.0,-999,0.00,,,-99.99,,2013-04-01 23:33:00,
2013-04-01 19:43:00,39.0,-99.9,-100.00,North,-999,-999.0,-999.0,-999,0.00,,,-99.99,,2013-04-01 23:43:00,
2013-04-01 20:03:00,36.0,-99.9,-100.00,North,-999,-999.0,-999.0,-999,0.00,,,-99.99,,2013-04-02 00:03:00,
2013-04-01 20:13:00,36.0,-99.9,-100.00,North,-999,-999.0,-999.0,-999,0.00,,,-99.99,,2013-04-02 00:13:00,
2013-04-01 20:23:00,36.0,-99.9,-100.00,North,-999,-999.0,-999.0,-999,0.00,,,-99.99,,2013-04-02 00:23:00,
2013-04-01 20:33:00,36.0,-99.9,-100.00,North,-999,-999.0,-999.0,-999,0.00,,,-99.99,,2013-04-02 00:33:00,
2013-04-01 21:03:00,34.0,-99.9,-100.00,North,-999,-999.0,-999.0,-999,0.00,,,-99.99,,2013-04-02 01:03:00,
2013-04-01 21:13:00,34.0,-99.9,-100.00,North,-999,-999.0,-999.0,-999,0.00,,,-99.99,,2013-04-02 01:13:00,
2013-04-01 21:33:00,34.0,-99.9,-100.00,North,-999,-999.0,-999.0,-999,0.00,,,-99.99,,2013-04-02 01:33:00,
2013-04-01 21:43:00,34.0,-99.9,-100.00,North,-999,-999.0,-999.0,-999,0.00,,,-99.99,,2013-04-02 01:43:00,
2013-04-01 22:04:00,33.0,-99.9,-100.00,North,-999,-999.0,-999.0,-999,0.00,,,-99.99,,2013-04-02 02:04:00,
2013-04-01 22:13:00,33.0,-99.9,-100.00,North,-999,-999.0,-999.0,-999,0.00,,,-99.99,,2013-04-02 02:13:00,
2013-04-01 22:23:00,33.0,-99.9,-100.00,North,-999,-999.0,-999.0,-999,0.00,,,-99.99,,2013-04-02 02:23:00,
2013-04-01 22:33:00,33.0,-99.9,-100.00,North,-999,-999.0,-999.0,-999,0.00,,,-99.99,,2013-04-02 02:33:00,
2013-04-01 22:43:00,33.0,-99.9,-100.00,North,-999,-999.0,-999.0,-999,0.00,,,-99.99,,2013-04-02 02:43:00,
2013-04-01 23:03:00,32.0,-99.9,-100.00,North,-999,-999.0,-999.0,-999,0.00,,,-99.99,,2013-04-02 03:03:00,
2013-04-01 23:23:00,32.0,-99.9,-100.00,North,-999,-999.0,-999.0,-999,0.00,,,-99.99,,2013-04-02 03:23:00,
2013-04-01 23:34:00,32.0,-99.9,-100.00,North,-999,-999.0,-999.0,-999,0.00,,,-99.99,,2013-04-02 03:34:00,
2013-04-01 23:44:00,32.0,-99.9,-100.00,North,-999,-999.0,-999.0,-999,0.00,,,-99.99,,2013-04-02 03:44:00,